Showing default

DMC 3-FM1, 40715

Orbit data source: Space-Track

DMC 3-FM1, 40715 is a payload satellite owned by DMCii (UK) in SSO that was launched on Fri, 10 Jul 2015 UTC via a PSLV-XL launch vehicle from the Sirharikota (SRI). Payload-class satellites include a variety of spacecraft equipped with specific instruments for various scientific and technological missions. These include communications satellites like Starlink; space stations such as the ISS; scientific satellites like the Hubble; Earth observation satellites from companies like Planet Labs, Umbra, and HawkEye 360; GPS; miniature CubeSats for education and research; and military/defense satellites.

Loading next visibility...
Identifier
40715, 2015-032A
Orbit
SSO
Country
Flag of UKUK
Related business
Manufacturer
SSTL (Astrium)
Mission
Operational Commercial Imaging
Bus & Motor
SSTL-300S1, Unknown motor
Mass
447 kg wet, 435 kg dry
Launch date (UTC)
2015-07-10 (10 years ago)
Launch vehicle
PSLV-XL
Launch site
Sirharikota (SRI)
Object type
Payload
Rocket body
Debris
Shape & HBR
Hept Cyl + Cyl, 1.3 m
Radar Cross Section
2.356 m², Large (>1 m²)

Expand to show TLE details & history
Last TLE update: 5 hours ago

TLE from 5 hours ago
0 DMC 3-FM1
1 40715U 15032A   25258.65402698  .00000570  00000-0  72478-4 0  9994
2 40715  97.6823 129.0125 0004311 227.5650 132.5201 14.85211078549155
Epoch: 2025-09-15T15:41Z
TLE epoch observation values (Epoch: 2025-09-15T15:41:47.931Z)
Latitude
-0.00002°
Longitude
-101.29279°
Altitude
617.996 km
Speed
7.549 km/s
True Right ascension
08h 36m 03s
True Declination
0° 00' 00"
Sunlit
Object was in daylight at epoch
Visualization orbit readout
Latitude
Unknown
Longitude
Unknown
Altitude
Unknown
Speed
Unknown
Apparent Right ascension
Unknown
Apparent Declination
Unknown
Sunlit
N/A
Visualization observer readout
Local Sidereal Time
13:27:59
Azimuth
Unknown
Elevation
Unknown
Doppler factor
Unknown
Orbital elements
Apogee altitude
612.96 km
Perigee altitude
606.935 km
Semi-major axis
6,988.085 km
Eccentricity
0.00043
Inclination
97.6823°
RAAN
129.0125°
Arg. of periapsis
227.565°
True anomaly
132.5565°
Mean anomaly
132.5201°
Eccentric anomaly
132.5383°
Mean motion
3.7154 °/min
Orbital period
96.89 mins
BSTAR
0.000072478
Loading maneuver chart data...
Computing Atmospheric mass density...
Loading historical data...
Loading historical data...
Loading historical data...
Loading historical data...
Loading historical data...
Loading historical data...
Loading historical data...
Other satellites on launch #32 in the year 2015 (2015-07-10 UTC)

Documentation

Showing up to 5 results
|